sat.trackr.live / text

‹ back to catalog

AEROCUBE 5C

NORAD 40965 · 2015-058B

PAYLOAD ACTIVE UNKNOWN

§ Identity

Operator
Country
US
Launch date
2015-10-08
Launch site
AFWTR
Launch vehicle
Mass (kg)
RCS (m²)

Purposes: tech_demo

External: N2YO · Heavens-Above · Gunter

§ Orbital elements

Epoch: 2026-05-24T20:02:59.708256Z

Period
96.56 min
Inclination
64.7681°
Eccentricity
0.0130048
Mean motion
14.91305165 rev/d
Perigee alt
503.2 km
Apogee alt
684.5 km
Semi-major
6,972.0 km
B*
2.5064e-4
RAAN
335.2295°
Arg perigee
72.4588°
Mean anomaly
289.0684°
Rev number
36,217

§ Raw data

AEROCUBE 5C1 40965U 15058B   26144.83541329  .00002766  00000+0  25064-3 0  99952 40965  64.7681 335.2295 0130048  72.4588 289.0684 14.91305165362178

JSON: /api/v1/satellites/40965 · /tle

For live sub-satellite position, see the globe view (requires WebGL).

§ Visibility from observer

Set your observer location to see the next 7 days of passes ≥ 10°. The values pass through the URL so the page stays shareable.

No JS? Fill the form by hand. The geolocation button needs JavaScript.